Annette Island, AK

2:45 PM AKDT on August 22, 2017 (GMT -0800)
Annette Island

Weather History for PANT - May, 2013

Change the Weather History Date:

Sunday, May 5, 2013

  Actual Average Record
Temperature  
Mean Temperature 54 °F 48 °F  
Max Temperature 65 °F 54 °F 75 °F (1972)
Min Temperature 43 °F 42 °F 32 °F (1965)
Degree Days  
Heating Degree Days 11 17  
Month to date heating degree days 80 88  
Since 1 July heating degree days 6068 6033  
Cooling Degree Days 0    
Month to date cooling degree days 0  
Year to date cooling degree days 0  
Growing Degree Days 3 (Base 50)    
Moisture  
Dew Point 46 °F    
Average Humidity 0    
Maximum Humidity 0    
Minimum Humidity 0    
Precipitation  
Precipitation 0.00 in 0.18 in 2.02 in (1949)
Month to date precipitation 2.08 0.96  
Year to date precipitation 34.56 33.82  
Snow  
Snow 0.00 in 0.00 in T in (1959)
Month to date snowfall 0.0 0.0  
Since 1 July snowfall 12.8 34.8  
Snow Depth 0.00 in    
Sea Level Pressure  
Sea Level Pressure 30.15 in    
Wind  
Wind Speed 4 mph (NW)    
Max Wind Speed 10 mph    
Max Gust Speed 15 mph    
Visibility 6 miles    
Events Fog    
T = Trace of Precipitation, MM = Missing Value Source: NWS Daily Summary

Daily Weather History Graph

Daily Weather History Graph

Search for Another Location

Airport or City:

Trip Planner

Search our weather history database for the weather conditions in past years. The results will help you decide how hot, cold, wet, or windy it might be!

Date:

Astronomy

May. 05, 2013 Rise Set
Actual Time 4:56 AM AKDT 8:30 PM AKDT
Civil Twilight 4:12 AM AKDT 9:15 PM AKDT
Nautical Twilight 3:11 AM AKDT 10:17 PM AKDT
Astronomical Twilight 1:27 AM AKDT 12:09 AM AKDT
Moon 3:12 AM AKDT (5/5) 4:00 PM AKDT (5/5)
Length of Visible Light 17h 02m
Length of Day
15h 33m
Waning Crescent, 17% of the Moon is Illuminated
May 5
Waning Crescent
May 9
New
May 17
First Quarter
May 24
Full
May 31
Last Quarter

Hourly Weather History & Observations

Time (AKDT) Temp. Windchill Dew Point Humidity Pressure Visibility Wind Dir Wind Speed Gust Speed Precip Events Conditions
12:19 AM 44.6 °F - 44.6 °F 100% 30.29 in 4.0 mi Calm Calm - N/A   Scattered Clouds
12:50 AM 44.6 °F 43.1 °F 44.6 °F 100% 30.29 in 2.5 mi NW 3.5 mph - N/A   Mostly Cloudy
12:53 AM 45.0 °F - 44.1 °F 97% 30.29 in 1.8 mi Calm Calm - N/A   Mostly Cloudy
1:03 AM 44.6 °F 42.2 °F 44.6 °F 100% 30.28 in 0.5 mi NNW 4.6 mph - N/A Fog Fog
1:53 AM 45.0 °F - 44.1 °F 97% 30.28 in 0.8 mi Calm Calm - N/A   Mist
2:53 AM 44.1 °F 42.5 °F 43.0 °F 96% 30.26 in 0.5 mi NW 3.5 mph - N/A Fog Fog
3:32 AM 44.6 °F - 42.8 °F 93% 30.25 in 2.0 mi Calm Calm - N/A   Mostly Cloudy
3:39 AM 42.8 °F 41.1 °F 42.8 °F 100% 30.25 in 1.0 mi NW 3.5 mph - N/A   Mist
4:01 AM 46.4 °F 43.5 °F 44.6 °F 93% 30.24 in 0.5 mi NW 5.8 mph - N/A Fog Fog
4:10 AM 46.4 °F 43.5 °F 46.4 °F 100% 30.24 in 0.2 mi NW 5.8 mph - N/A Fog Fog
4:53 AM 46.0 °F 44.8 °F 46.0 °F 100% 30.24 in 0.2 mi NNW 3.5 mph - N/A Fog Fog
5:53 AM 46.9 °F - 46.0 °F 97% 30.23 in 0.2 mi NNW 6.9 mph - N/A Fog Fog
6:53 AM 46.9 °F - 46.0 °F 97% 30.22 in 0.2 mi NNW 6.9 mph - N/A Fog Fog
7:48 AM 46.4 °F 41.5 °F 46.4 °F 100% 30.21 in 0.5 mi NW 10.4 mph - N/A Fog Fog
7:53 AM 46.9 °F - 46.9 °F 100% 30.21 in 1.0 mi NW 9.2 mph - N/A   Mist
8:11 AM 48.2 °F - 46.4 °F 93% 30.20 in 2.0 mi NNW 8.1 mph - N/A   Overcast
8:21 AM 48.2 °F - 46.4 °F 93% 30.20 in 4.0 mi North 8.1 mph - N/A   Overcast
8:53 AM 48.9 °F - 48.9 °F 100% 30.19 in 10.0 mi NNW 5.8 mph - N/A   Overcast
9:53 AM 52.0 °F - 48.0 °F 86% 30.17 in 10.0 mi NW 9.2 mph - N/A   Overcast
10:00 AM 51.8 °F - 48.2 °F 88% 30.16 in 10.0 mi WNW 9.2 mph - N/A   Mostly Cloudy
10:24 AM 55.4 °F - 48.2 °F 77% 30.16 in 10.0 mi WNW 6.9 mph - N/A   Scattered Clouds
10:53 AM 55.9 °F - 48.0 °F 75% 30.15 in 10.0 mi WNW 5.8 mph - N/A   Partly Cloudy
11:53 AM 57.0 °F - 48.0 °F 72% 30.13 in 10.0 mi Variable 5.8 mph - N/A   Scattered Clouds
12:53 PM 60.1 °F - 48.9 °F 67% 30.12 in 10.0 mi WNW 4.6 mph - N/A   Mostly Cloudy
1:53 PM 61.0 °F - 48.9 °F 64% 30.10 in 10.0 mi WNW 3.5 mph - N/A   Mostly Cloudy
2:53 PM 61.0 °F - 48.0 °F 62% 30.08 in 10.0 mi West 4.6 mph - N/A   Mostly Cloudy
3:53 PM 63.0 °F - 46.0 °F 54% 30.05 in 10.0 mi WNW 4.6 mph - N/A   Mostly Cloudy
4:53 PM 64.9 °F - 48.9 °F 56% 30.03 in 10.0 mi West 3.5 mph - N/A   Mostly Cloudy
5:53 PM 63.0 °F - 48.0 °F 58% 30.01 in 10.0 mi NW 4.6 mph - N/A   Clear
6:53 PM 57.9 °F - 48.0 °F 70% 29.99 in 10.0 mi WNW 3.5 mph - N/A   Clear
7:53 PM 55.9 °F - 48.0 °F 75% 29.98 in 10.0 mi NW 4.6 mph - N/A   Clear
8:53 PM 55.0 °F - 46.9 °F 74% 29.97 in 10.0 mi NNW 3.5 mph - N/A   Scattered Clouds
9:53 PM 55.0 °F - 46.9 °F 74% 29.96 in 10.0 mi NW 5.8 mph - N/A   Scattered Clouds
10:53 PM 54.0 °F - 46.9 °F 77% 29.96 in 10.0 mi North 5.8 mph - N/A   Partly Cloudy
11:53 PM 53.1 °F - 46.9 °F 80% 29.97 in 10.0 mi NNW 10.4 mph - N/A   Clear